�������l�o���
Date,Time,MP-1(��Sv/h),MP-2(��Sv/h),MP-3(��Sv/h),MP-4(��Sv/h),MP-5(��Sv/h),MP-6(��Sv/h),MP-7(��Sv/h),MP-8(��Sv/h),����,����(m/s),���J
2024/05/28,00:00,0.513,0.788,0.495,0.980,0.714,0.321,0.557,0.520,��,4.2,��
2024/05/28,00:10,0.515,0.789,0.493,0.980,0.716,0.321,0.558,0.519,��,3.8,��
2024/05/28,00:20,0.514,0.787,0.494,0.980,0.715,0.320,0.559,0.519,��,3.5,��
2024/05/28,00:30,0.516,0.787,0.495,0.978,0.715,0.321,0.557,0.521,��,3.1,��
2024/05/28,00:40,0.515,0.789,0.494,0.979,0.715,0.321,0.560,0.521,��,1.5,��
2024/05/28,00:50,0.517,0.791,0.495,0.978,0.716,0.320,0.557,0.519,��,1.7,��
2024/05/28,01:00,0.516,0.787,0.495,0.979,0.715,0.320,0.557,0.520,��,1.7,��
2024/05/28,01:10,0.517,0.789,0.495,0.979,0.715,0.320,0.556,0.519,��쓌,0.6,��
2024/05/28,01:20,0.516,0.788,0.495,0.980,0.716,0.321,0.559,0.520,�k��,0.6,��
2024/05/28,01:30,0.516,0.789,0.496,0.980,0.717,0.321,0.558,0.521,�k�k��,1.7,��
2024/05/28,01:40,0.516,0.786,0.495,0.980,0.716,0.321,0.558,0.521,�k�k��,2.2,��
2024/05/28,01:50,0.516,0.787,0.496,0.981,0.714,0.321,0.559,0.520,�k��,4.5,��
2024/05/28,02:00,0.516,0.785,0.494,0.979,0.715,0.321,0.558,0.521,�k��,5.0,��
2024/05/28,02:10,0.516,0.789,0.495,0.978,0.716,0.322,0.557,0.521,���k��,2.6,��
2024/05/28,02:20,0.516,0.789,0.495,0.979,0.718,0.321,0.558,0.520,���k��,1.7,��
2024/05/28,02:30,0.515,0.789,0.496,0.982,0.717,0.321,0.559,0.522,��,1.5,��
2024/05/28,02:40,0.516,0.788,0.496,0.978,0.716,0.320,0.557,0.521,��,3.3,��
2024/05/28,02:50,0.516,0.788,0.495,0.981,0.717,0.322,0.558,0.520,��,3.6,��
2024/05/28,03:00,0.516,0.786,0.494,0.981,0.714,0.321,0.557,0.519,���k��,3.4,��
2024/05/28,03:10,0.517,0.788,0.496,0.979,0.717,0.320,0.557,0.520,�k�k��,4.8,��
2024/05/28,03:20,0.516,0.788,0.495,0.981,0.716,0.321,0.559,0.520,�k�k��,7.5,��
2024/05/28,03:30,0.516,0.788,0.494,0.981,0.715,0.320,0.558,0.522,�k�k��,6.8,��
2024/05/28,03:40,0.516,0.788,0.494,0.979,0.714,0.321,0.558,0.520,�k�k��,7.1,��
2024/05/28,03:50,0.515,0.786,0.495,0.979,0.716,0.320,0.557,0.521,�k�k��,7.4,��
2024/05/28,04:00,0.516,0.786,0.496,0.979,0.716,0.320,0.557,0.519,�k,8.0,�L
2024/05/28,04:10,0.516,0.788,0.496,0.978,0.714,0.321,0.560,0.521,�k,7.5,�L
2024/05/28,04:20,0.516,0.786,0.495,0.978,0.718,0.320,0.558,0.519,�k,6.7,��
2024/05/28,04:30,0.516,0.787,0.495,0.979,0.714,0.320,0.560,0.520,�k,6.1,��
2024/05/28,04:40,0.515,0.787,0.495,0.980,0.715,0.319,0.557,0.520,�k�k��,5.2,��
2024/05/28,04:50,0.514,0.787,0.494,0.979,0.716,0.320,0.556,0.521,�k�k��,5.1,�L
2024/05/28,05:00,0.517,0.787,0.494,0.982,0.716,0.320,0.557,0.520,�k,5.4,�L
2024/05/28,05:10,0.516,0.787,0.497,0.979,0.716,0.320,0.557,0.520,�k,4.6,�L
2024/05/28,05:20,0.517,0.786,0.497,0.980,0.715,0.320,0.557,0.519,�k,3.8,�L
2024/05/28,05:30,0.516,0.788,0.494,0.982,0.715,0.320,0.558,0.520,�k�k��,4.3,�L
2024/05/28,05:40,0.516,0.787,0.496,0.981,0.716,0.322,0.558,0.520,�k�k��,4.7,�L
2024/05/28,05:50,0.516,0.786,0.496,0.981,0.715,0.321,0.558,0.520,�k�k��,3.9,�L
2024/05/28,06:00,0.514,0.787,0.495,0.979,0.715,0.320,0.557,0.519,�k�k��,4.2,��
2024/05/28,06:10,0.513,0.787,0.493,0.981,0.716,0.319,0.557,0.519,�k�k��,2.6,��
2024/05/28,06:20,0.513,0.784,0.495,0.979,0.715,0.319,0.559,0.520,�k,3.1,��
2024/05/28,06:30,0.514,0.787,0.494,0.979,0.714,0.320,0.559,0.518,�k,3.8,�L
2024/05/28,06:40,0.514,0.785,0.494,0.978,0.714,0.320,0.558,0.518,�k,3.6,�L
2024/05/28,06:50,0.512,0.785,0.493,0.977,0.713,0.320,0.558,0.519,�k,3.4,�L
2024/05/28,07:00,0.513,0.784,0.495,0.980,0.714,0.320,0.555,0.519,�k,4.0,�L
2024/05/28,07:10,0.513,0.782,0.494,0.980,0.711,0.320,0.557,0.518,�k,2.9,�L
2024/05/28,07:20,0.512,0.782,0.494,0.982,0.712,0.320,0.555,0.518,�k�k��,3.8,�L
2024/05/28,07:30,0.512,0.778,0.493,0.979,0.710,0.320,0.556,0.517,�k,2.5,�L
2024/05/28,07:40,0.511,0.778,0.493,0.979,0.710,0.319,0.555,0.515,�k�k��,2.9,�L
2024/05/28,07:50,0.510,0.776,0.493,0.979,0.708,0.318,0.556,0.517,�k�k��,2.3,�L
2024/05/28,08:00,0.511,0.776,0.492,0.978,0.709,0.320,0.555,0.519,�k��,2.6,�L
2024/05/28,08:10,0.511,0.779,0.492,0.976,0.709,0.319,0.556,0.517,�k��,2.3,�L
2024/05/28,08:20,0.511,0.779,0.491,0.975,0.709,0.319,0.555,0.518,�k��,2.8,�L
2024/05/28,08:30,0.510,0.779,0.491,0.976,0.710,0.319,0.555,0.518,�k��,1.7,�L
2024/05/28,08:40,0.512,0.778,0.492,0.977,0.710,0.321,0.555,0.516,�k�k��,1.9,�L
2024/05/28,08:50,0.510,0.774,0.490,0.975,0.708,0.319,0.555,0.516,�k��,2.0,�L
2024/05/28,09:00,0.506,0.772,0.488,0.976,0.706,0.318,0.554,0.516,�k��,1.7,�L
2024/05/28,09:10,0.508,0.770,0.490,0.974,0.701,0.318,0.553,0.516,�k��,2.2,�L
2024/05/28,09:20,0.506,0.769,0.487,0.968,0.700,0.318,0.552,0.515,�k�k��,3.4,�L
2024/05/28,09:30,0.506,0.765,0.485,0.969,0.699,0.318,0.553,0.513,�k�k��,4.1,�L
2024/05/28,09:40,0.503,0.760,0.484,0.966,0.696,0.318,0.551,0.513,�k�k��,4.0,�L
2024/05/28,09:50,0.502,0.761,0.485,0.963,0.695,0.318,0.552,0.513,�k�k��,3.5,�L
2024/05/28,10:00,0.503,0.760,0.483,0.963,0.692,0.317,0.551,0.513,�k�k��,4.5,�L
2024/05/28,10:10,0.504,0.762,0.483,0.959,0.694,0.317,0.551,0.513,�k�k��,4.5,�L
2024/05/28,10:20,0.502,0.759,0.484,0.959,0.692,0.316,0.551,0.513,�k�k��,3.6,�L
2024/05/28,10:30,0.500,0.761,0.483,0.961,0.693,0.315,0.550,0.513,�k�k��,3.6,�L
2024/05/28,10:40,0.499,0.759,0.482,0.961,0.691,0.316,0.551,0.512,�k�k��,3.5,�L
2024/05/28,10:50,0.500,0.759,0.480,0.958,0.690,0.314,0.548,0.512,�k��,3.0,�L
2024/05/28,11:00,0.500,0.759,0.480,0.958,0.689,0.313,0.550,0.513,�k��,3.7,�L
2024/05/28,11:10,0.498,0.757,0.478,0.959,0.690,0.314,0.550,0.512,�k�k��,4.4,�L
2024/05/28,11:20,0.499,0.759,0.481,0.960,0.691,0.313,0.550,0.511,�k�k��,5.3,�L
2024/05/28,11:30,0.498,0.757,0.478,0.959,0.690,0.313,0.549,0.513,�k�k��,5.1,�L
2024/05/28,11:40,0.498,0.759,0.481,0.955,0.690,0.313,0.550,0.510,�k�k��,4.1,�L
2024/05/28,11:50,0.498,0.759,0.480,0.959,0.690,0.314,0.550,0.512,�k�k��,4.9,�L
2024/05/28,12:00,0.497,0.758,0.481,0.958,0.689,0.316,0.550,0.511,�k�k��,6.1,�L
2024/05/28,12:10,0.497,0.757,0.480,0.958,0.690,0.313,0.551,0.514,�k�k��,5.9,�L
2024/05/28,12:20,0.497,0.757,0.481,0.957,0.690,0.313,0.551,0.513,�k�k��,3.9,�L
2024/05/28,12:30,0.497,0.757,0.481,0.955,0.688,0.313,0.550,0.512,�k�k��,5.1,�L
2024/05/28,12:40,0.497,0.758,0.481,0.957,0.687,0.313,0.551,0.513,�k�k��,4.8,�L
2024/05/28,12:50,0.497,0.758,0.481,0.954,0.689,0.312,0.550,0.510,�k,4.2,�L
2024/05/28,13:00,0.497,0.758,0.482,0.957,0.687,0.314,0.549,0.512,�k,3.4,�L
2024/05/28,13:10,0.497,0.756,0.481,0.955,0.690,0.314,0.550,0.511,�k,3.7,�L
2024/05/28,13:20,0.497,0.756,0.481,0.957,0.690,0.314,0.549,0.512,�k,4.2,�L
2024/05/28,13:30,0.499,0.759,0.481,0.956,0.689,0.314,0.551,0.511,�k�k��,4.4,�L
2024/05/28,13:40,0.499,0.759,0.480,0.957,0.690,0.315,0.551,0.511,�k�k��,4.1,�L
2024/05/28,13:50,0.498,0.760,0.480,0.955,0.690,0.312,0.550,0.512,�k�k��,4.0,�L
2024/05/28,14:00,0.498,0.758,0.481,0.955,0.690,0.314,0.550,0.512,�k,3.2,�L
2024/05/28,14:10,0.499,0.759,0.480,0.955,0.690,0.315,0.551,0.511,�k,3.3,�L
2024/05/28,14:20,0.498,0.757,0.481,0.958,0.689,0.316,0.551,0.514,�k�k��,3.8,�L
2024/05/28,14:30,0.498,0.758,0.480,0.958,0.692,0.315,0.550,0.513,�k,4.7,�L
2024/05/28,14:40,0.498,0.757,0.480,0.956,0.689,0.315,0.551,0.512,�k,5.1,�L
2024/05/28,14:50,0.497,0.758,0.482,0.956,0.688,0.314,0.549,0.512,�k,3.7,�L
2024/05/28,15:00,0.499,0.755,0.482,0.956,0.687,0.314,0.550,0.511,�k,4.3,�L
2024/05/28,15:10,0.496,0.755,0.481,0.955,0.687,0.315,0.549,0.511,�k,4.1,�L
2024/05/28,15:20,0.497,0.754,0.480,0.954,0.688,0.314,0.550,0.511,�k,4.6,�L
2024/05/28,15:30,0.497,0.755,0.481,0.953,0.686,0.314,0.548,0.512,�k,3.7,�L
2024/05/28,15:40,0.494,0.754,0.480,0.954,0.686,0.313,0.550,0.512,�k,4.1,�L
2024/05/28,15:50,0.495,0.754,0.480,0.952,0.686,0.314,0.549,0.511,�k,4.6,�L
2024/05/28,16:00,0.496,0.753,0.481,0.953,0.688,0.314,0.551,0.510,�k,4.9,�L
2024/05/28,16:10,0.497,0.755,0.481,0.953,0.686,0.315,0.549,0.511,�k,4.3,�L
2024/05/28,16:20,0.496,0.754,0.479,0.952,0.686,0.314,0.548,0.511,�k,4.2,�L
2024/05/28,16:30,0.495,0.755,0.480,0.950,0.686,0.314,0.548,0.512,�k,5.2,�L
2024/05/28,16:40,0.495,0.754,0.480,0.952,0.686,0.315,0.549,0.511,�k,4.9,�L
2024/05/28,16:50,0.497,0.754,0.481,0.953,0.684,0.315,0.548,0.513,�k,5.7,�L
2024/05/28,17:00,0.497,0.752,0.480,0.952,0.685,0.315,0.549,0.511,�k,4.1,�L
2024/05/28,17:10,0.498,0.756,0.481,0.952,0.684,0.316,0.549,0.510,�k,4.1,�L
2024/05/28,17:20,0.498,0.755,0.482,0.952,0.686,0.316,0.548,0.511,�k,3.9,�L
2024/05/28,17:30,0.498,0.754,0.482,0.954,0.684,0.318,0.548,0.510,�k,4.5,�L
2024/05/28,17:40,0.498,0.753,0.480,0.951,0.683,0.318,0.549,0.512,�k,3.9,�L
2024/05/28,17:50,0.497,0.752,0.482,0.948,0.684,0.317,0.548,0.511,�k�k��,4.3,�L
2024/05/28,18:00,0.496,0.753,0.483,0.947,0.684,0.316,0.547,0.510,�k,4.6,�L
2024/05/28,18:10,0.495,0.751,0.481,0.948,0.681,0.316,0.548,0.510,�k�k��,4.9,�L
2024/05/28,18:20,0.497,0.749,0.481,0.947,0.683,0.316,0.546,0.510,�k�k��,4.8,�L
2024/05/28,18:30,0.496,0.751,0.481,0.944,0.680,0.315,0.548,0.511,�k�k��,4.7,�L
2024/05/28,18:40,0.493,0.747,0.478,0.942,0.678,0.313,0.545,0.511,�k�k��,4.0,�L
2024/05/28,18:50,0.494,0.743,0.479,0.939,0.675,0.313,0.545,0.509,���k��,2.6,�L
2024/05/28,19:00,0.491,0.739,0.476,0.931,0.670,0.315,0.543,0.509,�k�k��,2.9,�L
2024/05/28,19:10,0.490,0.740,0.477,0.930,0.672,0.314,0.544,0.509,�k��,3.5,�L
2024/05/28,19:20,0.489,0.738,0.476,0.932,0.673,0.312,0.544,0.508,�k��,4.6,�L
2024/05/28,19:30,0.489,0.739,0.475,0.931,0.671,0.312,0.542,0.507,�k��,5.2,�L
2024/05/28,19:40,0.490,0.738,0.474,0.926,0.671,0.312,0.543,0.508,�k��,5.9,�L
2024/05/28,19:50,0.485,0.737,0.475,0.922,0.669,0.309,0.541,0.506,�k��,5.1,�L
2024/05/28,20:00,0.488,0.738,0.474,0.924,0.668,0.312,0.542,0.506,�k��,4.1,�L
2024/05/28,20:10,0.486,0.736,0.472,0.925,0.668,0.311,0.541,0.505,�k��,5.1,�L
2024/05/28,20:20,0.484,0.733,0.474,0.919,0.665,0.310,0.541,0.506,�k��,5.4,�L
2024/05/28,20:30,0.485,0.734,0.474,0.920,0.666,0.310,0.539,0.505,�k��,6.3,�L
2024/05/28,20:40,0.487,0.734,0.473,0.920,0.665,0.309,0.541,0.505,�k��,5.8,�L
2024/05/28,20:50,0.486,0.736,0.474,0.920,0.667,0.310,0.541,0.506,�k��,7.3,�L
2024/05/28,21:00,0.485,0.733,0.474,0.919,0.667,0.310,0.541,0.506,�k�k��,6.8,�L
2024/05/28,21:10,0.484,0.734,0.473,0.920,0.666,0.310,0.541,0.506,�k�k��,6.3,�L
2024/05/28,21:20,0.486,0.733,0.473,0.919,0.665,0.309,0.542,0.504,�k�k��,6.6,�L
2024/05/28,21:30,0.483,0.732,0.471,0.915,0.663,0.309,0.542,0.504,�k�k��,6.5,�L
2024/05/28,21:40,0.484,0.731,0.472,0.914,0.660,0.310,0.540,0.505,�k�k��,6.2,�L
2024/05/28,21:50,0.482,0.730,0.473,0.913,0.662,0.308,0.539,0.505,�k�k��,5.9,�L
2024/05/28,22:00,0.479,0.728,0.469,0.910,0.657,0.308,0.537,0.501,�k�k��,5.5,�L
2024/05/28,22:10,0.480,0.726,0.471,0.910,0.657,0.308,0.537,0.502,�k�k��,5.1,�L
2024/05/28,22:20,0.481,0.728,0.471,0.910,0.659,0.308,0.538,0.505,�k��,5.1,�L
2024/05/28,22:30,0.480,0.727,0.472,0.910,0.659,0.308,0.538,0.504,�k��,4.5,�L
2024/05/28,22:40,0.477,0.724,0.469,0.905,0.656,0.307,0.536,0.501,�k��,5.3,�L
2024/05/28,22:50,0.477,0.724,0.469,0.905,0.657,0.306,0.536,0.503,�k��,5.9,�L
2024/05/28,23:00,0.477,0.725,0.467,0.903,0.654,0.306,0.538,0.502,�k��,5.1,�L
2024/05/28,23:10,0.477,0.725,0.469,0.905,0.656,0.306,0.537,0.503,�k��,5.7,�L
2024/05/28,23:20,0.478,0.725,0.468,0.907,0.656,0.307,0.537,0.501,�k�k��,6.4,�L
2024/05/28,23:30,0.479,0.724,0.467,0.908,0.655,0.306,0.537,0.502,�k�k��,6.9,�L
2024/05/28,23:40,0.480,0.726,0.468,0.908,0.659,0.307,0.537,0.503,�k�k��,5.5,�L
2024/05/28,23:50,0.479,0.725,0.468,0.908,0.657,0.308,0.538,0.503,�k�k��,3.8,�L
